DLH9PE EDDC-ELLX

Flight info

Callsign DLH9PE
Flight time 1h 0m
Altitude 36000
Route ABKIS4E ABKIS Z715 KULOK L984 OSBIT/N0364F240 Z118 KOSEK Z104 MISGI T894 BITBU Z110 BETEX
Aircraft A20N/M-SDE2E3FGHIRWXY/LB1

Departure

Time 2026-04-30 20:08
Airport Dresden Airport (EDDC)

Arrival

Time 2026-04-30 21:09
Airport Luxembourg-Findel International Airport (ELLX)
Time Latitude Longitude Altitude Speed Heading
2026-04-30 19:28 51.12628 13.76544 754 ft 0 kts 221°
2026-04-30 19:53 51.12629 13.76544 754 ft 0 kts 221°
2026-04-30 19:55 51.12634 13.76552 754 ft 2 kts 221°
2026-04-30 19:55 51.12643 13.76565 754 ft 2 kts 221°
2026-04-30 19:56 51.12653 13.76579 753 ft 2 kts 221°
2026-04-30 19:56 51.12663 13.76592 753 ft 2 kts 221°
2026-04-30 19:56 51.12674 13.76607 753 ft 2 kts 221°
2026-04-30 19:56 51.12682 13.76628 753 ft 2 kts 260°
2026-04-30 19:57 51.12682 13.76653 753 ft 2 kts 292°
2026-04-30 19:57 51.12677 13.76666 753 ft 1 kts 310°
2026-04-30 19:57 51.12673 13.76674 753 ft 0 kts 312°
2026-04-30 20:02 51.12676 13.76669 753 ft 3 kts 311°
2026-04-30 20:02 51.12708 13.76609 752 ft 11 kts 311°
2026-04-30 20:03 51.12751 13.76532 750 ft 1 kts 311°
2026-04-30 20:03 51.12761 13.76515 750 ft 4 kts 311°
2026-04-30 20:03 51.12788 13.76455 749 ft 10 kts 292°
2026-04-30 20:03 51.12767 13.76356 749 ft 12 kts 220°
2026-04-30 20:04 51.12706 13.76271 751 ft 13 kts 220°
2026-04-30 20:04 51.12630 13.76169 751 ft 16 kts 220°
2026-04-30 20:04 51.12553 13.76065 753 ft 15 kts 221°
2026-04-30 20:05 51.12407 13.75864 754 ft 12 kts 220°
2026-04-30 20:05 51.12372 13.75796 753 ft 9 kts 254°
2026-04-30 20:05 51.12380 13.75721 751 ft 0 kts 293°
2026-04-30 20:06 51.12381 13.75717 751 ft 2 kts 293°
2026-04-30 20:06 51.12389 13.75685 750 ft 4 kts 292°
2026-04-30 20:06 51.12418 13.75584 748 ft 14 kts 311°
2026-04-30 20:07 51.12492 13.75511 747 ft 14 kts
2026-04-30 20:07 51.12532 13.75552 748 ft 0 kts 47°
2026-04-30 20:07 51.12533 13.75552 748 ft 0 kts 47°
2026-04-30 20:08 51.12676 13.75759 750 ft 65 kts 40°
2026-04-30 20:08 51.13144 13.76398 735 ft 128 kts 41°
2026-04-30 20:08 51.13887 13.77414 747 ft 174 kts 40°
2026-04-30 20:08 51.14710 13.78553 1389 ft 169 kts 42°
2026-04-30 20:09 51.15475 13.79695 2091 ft 168 kts 44°
2026-04-30 20:09 51.16237 13.80850 2710 ft 171 kts 42°
2026-04-30 20:09 51.17987 13.83204 3659 ft 193 kts 41°
2026-04-30 20:10 51.19935 13.86077 4415 ft 229 kts 57°
2026-04-30 20:10 51.20454 13.88183 5137 ft 234 kts 80°
2026-04-30 20:10 51.20370 13.90575 5732 ft 250 kts 104°
2026-04-30 20:11 51.18474 13.94976 7113 ft 271 kts 129°
2026-04-30 20:11 51.17260 13.96954 7924 ft 274 kts 130°
2026-04-30 20:11 51.16009 13.98860 8647 ft 280 kts 137°
2026-04-30 20:12 51.12505 13.99981 9609 ft 305 kts 195°
2026-04-30 20:12 51.10783 13.98357 10011 ft 311 kts 225°
2026-04-30 20:12 51.09543 13.95884 10409 ft 315 kts 235°
2026-04-30 20:13 51.08356 13.93124 10850 ft 327 kts 236°
2026-04-30 20:13 51.07109 13.90303 11268 ft 340 kts 234°
2026-04-30 20:13 51.05801 13.87507 11665 ft 345 kts 233°
2026-04-30 20:13 51.04402 13.84650 12105 ft 349 kts 232°
2026-04-30 20:14 51.02981 13.81827 12541 ft 351 kts 231°
2026-04-30 20:14 51.01516 13.78967 12984 ft 354 kts 231°
2026-04-30 20:14 51.00035 13.76095 13384 ft 357 kts 231°
2026-04-30 20:14 50.98519 13.73172 13826 ft 359 kts 231°
2026-04-30 20:15 50.97019 13.70286 14249 ft 362 kts 231°
2026-04-30 20:15 50.95496 13.67362 14673 ft 365 kts 231°
2026-04-30 20:15 50.93955 13.64410 15101 ft 369 kts 231°
2026-04-30 20:15 50.92409 13.61453 15519 ft 372 kts 231°
2026-04-30 20:16 50.90814 13.58403 15957 ft 375 kts 231°
2026-04-30 20:16 50.89305 13.55245 16370 ft 378 kts 242°
2026-04-30 20:16 50.88298 13.51611 16756 ft 380 kts 254°
2026-04-30 20:16 50.87520 13.47784 17092 ft 391 kts 256°
2026-04-30 20:17 50.86762 13.43913 17421 ft 403 kts 256°
2026-04-30 20:17 50.85936 13.39893 17757 ft 413 kts 255°
2026-04-30 20:17 50.85053 13.35799 18088 ft 418 kts 254°
2026-04-30 20:17 50.84129 13.31666 18424 ft 422 kts 252°
2026-04-30 20:18 50.83176 13.27501 18765 ft 425 kts 252°
2026-04-30 20:18 50.82233 13.23428 19101 ft 427 kts 252°
2026-04-30 20:18 50.81259 13.19252 19436 ft 430 kts 252°
2026-04-30 20:18 50.80268 13.15023 19729 ft 431 kts 252°
2026-04-30 20:19 50.79287 13.10851 20013 ft 433 kts 252°
2026-04-30 20:19 50.78635 13.08080 20204 ft 433 kts 252°
2026-04-30 20:19 50.77332 13.02556 20580 ft 436 kts 252°
2026-04-30 20:19 50.76349 12.98393 20865 ft 438 kts 252°
2026-04-30 20:20 50.75354 12.94186 21153 ft 440 kts 252°
2026-04-30 20:20 50.74340 12.89917 21440 ft 442 kts 252°
2026-04-30 20:20 50.73320 12.85625 21725 ft 444 kts 252°
2026-04-30 20:20 50.72287 12.81291 22017 ft 447 kts 252°
2026-04-30 20:21 50.71255 12.76968 22296 ft 448 kts 252°
2026-04-30 20:21 50.70227 12.72677 22587 ft 450 kts 252°
2026-04-30 20:21 50.69194 12.68366 22881 ft 452 kts 252°
2026-04-30 20:21 50.68144 12.63988 23167 ft 454 kts 252°
2026-04-30 20:22 50.67078 12.59559 23462 ft 456 kts 252°
2026-04-30 20:22 50.65969 12.54960 23761 ft 458 kts 252°
2026-04-30 20:22 50.64875 12.50431 24055 ft 461 kts 252°
2026-04-30 20:22 50.63739 12.45740 24371 ft 463 kts 252°
2026-04-30 20:23 50.62604 12.41062 24676 ft 464 kts 252°
2026-04-30 20:23 50.61522 12.36615 24963 ft 467 kts 252°
2026-04-30 20:23 50.60437 12.32153 25254 ft 469 kts 251°
2026-04-30 20:23 50.59308 12.27527 25556 ft 471 kts 251°
2026-04-30 20:24 50.58198 12.22992 25856 ft 473 kts 251°
2026-04-30 20:24 50.57092 12.18484 26150 ft 475 kts 251°
2026-04-30 20:24 50.55941 12.13798 26437 ft 477 kts 251°
2026-04-30 20:24 50.54776 12.09071 26689 ft 483 kts 251°
2026-04-30 20:25 50.52441 11.99611 27192 ft 494 kts 251°
2026-04-30 20:25 50.51229 11.94717 27447 ft 499 kts 251°
2026-04-30 20:26 50.48751 11.84747 27965 ft 507 kts 251°
2026-04-30 20:26 50.46263 11.74791 28480 ft 511 kts 251°
2026-04-30 20:26 50.44999 11.69745 28741 ft 512 kts 251°
2026-04-30 20:27 50.42477 11.59716 29258 ft 513 kts 251°
2026-04-30 20:27 50.39986 11.49861 29770 ft 511 kts 251°
2026-04-30 20:28 50.37485 11.39997 30286 ft 510 kts 251°
2026-04-30 20:28 50.34940 11.30001 30805 ft 509 kts 250°
2026-04-30 20:29 50.32416 11.20145 31317 ft 507 kts 250°
2026-04-30 20:30 50.28675 11.05609 32080 ft 504 kts 250°
2026-04-30 20:30 50.24889 10.90994 32858 ft 501 kts 251°
2026-04-30 20:31 50.21082 10.76383 33660 ft 496 kts 251°
2026-04-30 20:32 50.17327 10.62069 34610 ft 490 kts 251°
2026-04-30 20:32 50.14856 10.52689 35193 ft 485 kts 251°
2026-04-30 20:33 50.13602 10.47941 35489 ft 483 kts 251°
2026-04-30 20:33 50.11073 10.38413 36075 ft 477 kts 251°
2026-04-30 20:33 50.09921 10.33650 36338 ft 474 kts 254°
2026-04-30 20:34 50.08196 10.23832 36383 ft 478 kts 262°
2026-04-30 20:35 50.07182 10.08502 36363 ft 479 kts 273°
2026-04-30 20:35 50.07138 9.93374 36355 ft 478 kts 274°
2026-04-30 20:36 50.06976 9.83192 36350 ft 479 kts 270°
2026-04-30 20:37 50.05403 9.67996 36346 ft 483 kts 259°
2026-04-30 20:37 50.03809 9.58200 36348 ft 483 kts 259°
2026-04-30 20:38 50.02233 9.48559 36342 ft 484 kts 259°
2026-04-30 20:38 50.00703 9.39159 36339 ft 483 kts 259°
2026-04-30 20:39 49.98413 9.25117 36339 ft 482 kts 258°
2026-04-30 20:40 49.95999 9.10441 36344 ft 481 kts 258°
2026-04-30 20:40 49.94441 9.01027 36343 ft 482 kts 258°
2026-04-30 20:41 49.92119 8.86924 36329 ft 480 kts 260°
2026-04-30 20:41 49.90786 8.77427 36326 ft 480 kts 261°
2026-04-30 20:42 49.89463 8.67887 36328 ft 480 kts 260°
2026-04-30 20:43 49.87742 8.53764 36332 ft 477 kts 268°
2026-04-30 20:43 49.87645 8.44038 36334 ft 473 kts 278°
2026-04-30 20:44 49.89355 8.29584 36038 ft 470 kts 287°
2026-04-30 20:44 49.90811 8.20411 35232 ft 470 kts 287°
2026-04-30 20:45 49.92228 8.11229 34390 ft 472 kts 286°
2026-04-30 20:45 49.92921 8.06648 33948 ft 474 kts 286°
2026-04-30 20:45 49.93610 8.02071 33501 ft 475 kts 286°
2026-04-30 20:46 49.96051 7.87774 32104 ft 464 kts 289°
2026-04-30 20:46 49.96943 7.83095 31631 ft 460 kts 289°
2026-04-30 20:47 49.98672 7.73979 30706 ft 454 kts 289°
2026-04-30 20:47 49.99542 7.69552 30242 ft 451 kts 290°
2026-04-30 20:48 50.01409 7.60583 29281 ft 444 kts 290°
2026-04-30 20:48 50.02330 7.56152 28804 ft 441 kts 290°
2026-04-30 20:48 50.03239 7.51739 28324 ft 438 kts 290°
2026-04-30 20:48 50.04133 7.47370 27845 ft 435 kts 290°
2026-04-30 20:49 50.05018 7.43023 27373 ft 432 kts 290°
2026-04-30 20:49 50.05883 7.38744 26902 ft 430 kts 290°
2026-04-30 20:49 50.06754 7.34417 26426 ft 427 kts 289°
2026-04-30 20:50 50.07986 7.25682 25478 ft 423 kts 277°
2026-04-30 20:50 50.08223 7.21251 25010 ft 421 kts 275°
2026-04-30 20:50 50.08392 7.16844 24549 ft 418 kts 274°
2026-04-30 20:50 50.08550 7.12507 24093 ft 415 kts 274°
2026-04-30 20:51 50.08715 7.08157 23636 ft 412 kts 274°
2026-04-30 20:51 50.09056 6.99625 22731 ft 407 kts 274°
2026-04-30 20:51 50.09228 6.95387 22279 ft 405 kts 274°
2026-04-30 20:52 50.09399 6.91171 21831 ft 404 kts 274°
2026-04-30 20:52 50.09507 6.86939 21379 ft 402 kts 270°
2026-04-30 20:52 50.09338 6.78621 20244 ft 404 kts 264°
2026-04-30 20:53 50.08615 6.74605 19638 ft 402 kts 242°
2026-04-30 20:53 50.07044 6.71183 19067 ft 399 kts 226°
2026-04-30 20:53 50.05228 6.68113 18478 ft 399 kts 225°
2026-04-30 20:54 50.01566 6.61934 17312 ft 399 kts 226°
2026-04-30 20:54 49.99766 6.58791 16731 ft 399 kts 226°
2026-04-30 20:54 49.97789 6.55927 16142 ft 395 kts 214°
2026-04-30 20:55 49.93269 6.51901 14958 ft 373 kts 204°
2026-04-30 20:55 49.91065 6.50173 14332 ft 361 kts 204°
2026-04-30 20:55 49.88926 6.48477 13729 ft 350 kts 205°
2026-04-30 20:56 49.84911 6.45233 12549 ft 328 kts 205°
2026-04-30 20:56 49.83097 6.43351 11956 ft 323 kts 225°
2026-04-30 20:56 49.81945 6.37172 10825 ft 311 kts 283°
2026-04-30 20:57 49.82522 6.34051 10341 ft 309 kts 288°
2026-04-30 20:57 49.83187 6.30950 9871 ft 309 kts 287°
2026-04-30 20:57 49.83796 6.27803 9417 ft 310 kts 285°
2026-04-30 20:58 49.84834 6.21507 8573 ft 305 kts 283°
2026-04-30 20:58 49.85312 6.18391 8156 ft 301 kts 281°
2026-04-30 20:58 49.85455 6.15306 7729 ft 296 kts 256°
2026-04-30 20:58 49.84634 6.12570 7314 ft 285 kts 223°
2026-04-30 20:59 49.80950 6.10052 6485 ft 314 kts 194°
2026-04-30 20:59 49.79106 6.08558 6296 ft 302 kts 210°
2026-04-30 21:00 49.75966 6.04908 6295 ft 275 kts 211°
2026-04-30 21:00 49.72934 6.01660 6290 ft 275 kts 208°
2026-04-30 21:01 49.69751 5.98512 6290 ft 275 kts 207°
2026-04-30 21:01 49.68200 5.97011 6288 ft 275 kts 207°
2026-04-30 21:01 49.65086 5.94013 6279 ft 263 kts 207°
2026-04-30 21:02 49.63628 5.92606 6267 ft 249 kts 207°
2026-04-30 21:02 49.62197 5.91231 5916 ft 250 kts 206°
2026-04-30 21:02 49.60730 5.90085 5512 ft 245 kts 186°
2026-04-30 21:02 49.59222 5.90217 5132 ft 225 kts 152°
2026-04-30 21:03 49.58018 5.91524 4811 ft 214 kts 136°
2026-04-30 21:03 49.56961 5.92915 4470 ft 207 kts 138°
2026-04-30 21:03 49.55866 5.94225 4113 ft 201 kts 140°
2026-04-30 21:03 49.54808 5.95392 3773 ft 194 kts 141°
2026-04-30 21:04 49.53837 5.96647 3412 ft 184 kts 120°
2026-04-30 21:04 49.53627 5.98460 3070 ft 181 kts 76°
2026-04-30 21:04 49.55067 6.01413 3036 ft 159 kts 62°
2026-04-30 21:05 49.55658 6.02691 3003 ft 142 kts 66°
2026-04-30 21:05 49.56195 6.03959 3015 ft 141 kts 65°
2026-04-30 21:05 49.56690 6.05137 2988 ft 135 kts 68°
2026-04-30 21:05 49.57162 6.06334 2951 ft 135 kts 69°
2026-04-30 21:06 49.57621 6.07550 2783 ft 135 kts 68°
2026-04-30 21:06 49.58076 6.08775 2604 ft 135 kts 67°
2026-04-30 21:06 49.58535 6.10024 2402 ft 135 kts 66°
2026-04-30 21:06 49.58969 6.11240 2176 ft 134 kts 66°
2026-04-30 21:07 49.59416 6.12461 2030 ft 134 kts 63°
2026-04-30 21:07 49.59883 6.13678 1847 ft 134 kts 62°
2026-04-30 21:07 49.60336 6.14909 1682 ft 133 kts 62°
2026-04-30 21:07 49.60779 6.16143 1513 ft 133 kts 62°
2026-04-30 21:08 49.61232 6.17366 1365 ft 133 kts 61°
2026-04-30 21:08 49.61678 6.18566 1226 ft 132 kts 60°
2026-04-30 21:08 49.62127 6.19764 1197 ft 121 kts 60°
2026-04-30 21:08 49.62452 6.20638 1225 ft 74 kts 59°
2026-04-30 21:09 49.62648 6.21166 1226 ft 54 kts 60°
2026-04-30 21:09 49.62820 6.21621 1217 ft 49 kts 60°
2026-04-30 21:09 49.62965 6.22017 1212 ft 21 kts 58°
2026-04-30 21:09 49.63014 6.22121 1211 ft 9 kts 32°
2026-04-30 21:10 49.63067 6.22119 1213 ft 7 kts 337°
2026-04-30 21:10 49.63105 6.22086 1215 ft 5 kts 329°
2026-04-30 21:10 49.63135 6.22058 1217 ft 5 kts 329°
2026-04-30 21:10 49.63168 6.22026 1219 ft 9 kts 316°
2026-04-30 21:11 49.63187 6.21916 1223 ft 13 kts 300°
2026-04-30 21:11 49.63266 6.21839 1229 ft 11 kts 332°
2026-04-30 21:11 49.63305 6.21789 1233 ft 5 kts 286°
2026-04-30 21:11 49.63304 6.21748 1235 ft 2 kts 279°
2026-04-30 21:12 49.63306 6.21738 1235 ft 0 kts 290°
2026-04-30 21:12 49.63311 6.21724 1236 ft 5 kts 307°
2026-04-30 21:12 49.63333 6.21699 1238 ft 0 kts 331°
2026-04-30 21:12 49.63334 6.21697 1239 ft 1 kts 331°
2026-04-30 21:13 49.63346 6.21687 1240 ft 3 kts 329°
2026-04-30 21:13 49.63349 6.21685 1240 ft 0 kts 330°